Kremmling, CO

7:26 AM MDT on July 23, 2017 (GMT -0600)
Kremmling

Weather History for K20V - July, 2013

Change the Weather History Date:

Sunday, July 21, 2013

  Actual Average Record
Temperature  
Mean Temperature 65 °F -  
Max Temperature 89 °F - 96 °F (2005)
Min Temperature 41 °F - 41 °F (2013)
Degree Days  
Heating Degree Days 0    
Month to date heating degree days  
Cooling Degree Days 0    
Month to date cooling degree days  
Growing Degree Days 15 (Base 50)    
Moisture  
Dew Point 25 °F    
Average Humidity 33    
Maximum Humidity 76    
Minimum Humidity 4    
Precipitation  
Precipitation 0.00 in - 0.11 in (2016)
Sea Level Pressure  
Sea Level Pressure 30.19 in    
Wind  
Wind Speed 2 mph (NNW)    
Max Wind Speed 21 mph    
Max Gust Speed 24 mph    
Visibility 10 miles    
Events      
T = Trace of Precipitation, MM = Missing Value Source: NWS Daily Summary

Daily Weather History Graph

Daily Weather History Graph

Search for Another Location

Airport or City:

Trip Planner

Search our weather history database for the weather conditions in past years. The results will help you decide how hot, cold, wet, or windy it might be!

Date:

Astronomy

Jul. 21, 2013 Rise Set
Actual Time 5:54 AM MDT 8:29 PM MDT
Civil Twilight 5:22 AM MDT 9:00 PM MDT
Nautical Twilight 4:43 AM MDT 9:39 PM MDT
Astronomical Twilight 3:59 AM MDT 10:22 PM MDT
Moon 7:29 PM MDT (7/21) 4:43 AM MDT (7/21)
Length of Visible Light 15h 37m
Length of Day
14h 34m
Waxing Gibbous, 98% of the Moon is Illuminated
Jul 21
Waxing Gibbous
Jul 22
Full
Jul 29
Last Quarter
Aug 6
New
Aug 14
First Quarter

Hourly Weather History & Observations

Time (MDT) Temp. Dew Point Humidity Pressure Visibility Wind Dir Wind Speed Gust Speed Precip Events Conditions
12:16 AM 53.6 °F 35.6 °F 51% 30.17 in 10.0 mi Calm Calm - N/A   Clear
12:36 AM 51.8 °F 33.8 °F 50% 30.18 in 10.0 mi Calm Calm - N/A   Clear
12:56 AM 51.8 °F 35.6 °F 54% 30.19 in 10.0 mi Calm Calm - N/A   Clear
1:16 AM 51.8 °F 35.6 °F 54% 30.19 in 10.0 mi Calm Calm - N/A   Clear
1:36 AM 50.0 °F 35.6 °F 58% 30.19 in 10.0 mi Calm Calm - N/A   Clear
1:56 AM 50.0 °F 35.6 °F 58% 30.19 in 10.0 mi ENE 3.5 mph - N/A   Clear
2:16 AM 50.0 °F 35.6 °F 58% 30.19 in 10.0 mi Calm Calm - N/A   Clear
2:36 AM 50.0 °F 37.4 °F 62% 30.20 in 10.0 mi Calm Calm - N/A   Clear
2:55 AM 46.4 °F 33.8 °F 62% 30.20 in 10.0 mi Calm Calm - N/A   Clear
3:16 AM 48.2 °F 37.4 °F 66% 30.20 in 10.0 mi Calm Calm - N/A   Clear
3:36 AM 44.6 °F 33.8 °F 66% 30.20 in 10.0 mi Calm Calm - N/A   Clear
3:56 AM 46.4 °F 35.6 °F 66% 30.21 in 10.0 mi Calm Calm - N/A   Clear
4:16 AM 44.6 °F 35.6 °F 71% 30.21 in 10.0 mi Calm Calm - N/A   Clear
4:36 AM 44.6 °F 35.6 °F 71% 30.21 in 10.0 mi Calm Calm - N/A   Clear
4:56 AM 42.8 °F 33.8 °F 70% 30.22 in 10.0 mi Calm Calm - N/A   Clear
5:16 AM 42.8 °F 33.8 °F 70% 30.22 in 10.0 mi Calm Calm - N/A   Clear
5:36 AM 41.0 °F 33.8 °F 76% 30.22 in 10.0 mi Calm Calm - N/A   Clear
5:56 AM 41.0 °F 32.0 °F 70% 30.22 in 10.0 mi Calm Calm - N/A   Clear
6:16 AM 41.0 °F 33.8 °F 76% 30.23 in 10.0 mi Calm Calm - N/A   Clear
6:36 AM 42.8 °F 33.8 °F 70% 30.24 in 10.0 mi Calm Calm - N/A   Clear
6:56 AM 44.6 °F 33.8 °F 66% 30.24 in 10.0 mi Calm Calm - N/A   Clear
7:16 AM 48.2 °F 37.4 °F 66% 30.24 in 10.0 mi Calm Calm - N/A   Clear
7:36 AM 50.0 °F 37.4 °F 62% 30.24 in 10.0 mi Calm Calm - N/A   Clear
7:56 AM 51.8 °F 37.4 °F 58% 30.25 in 10.0 mi Calm Calm - N/A   Clear
8:16 AM 53.6 °F 37.4 °F 54% 30.25 in 10.0 mi Calm Calm - N/A   Clear
8:36 AM 55.4 °F 35.6 °F 47% 30.25 in 10.0 mi Calm Calm - N/A   Clear
8:56 AM 59.0 °F 37.4 °F 45% 30.25 in 10.0 mi Calm Calm - N/A   Clear
9:16 AM 60.8 °F 37.4 °F 42% 30.25 in 10.0 mi Calm Calm - N/A   Clear
9:36 AM 62.6 °F 35.6 °F 37% 30.24 in 10.0 mi Calm Calm - N/A   Clear
9:56 AM 66.2 °F 37.4 °F 35% 30.24 in 10.0 mi Calm Calm - N/A   Clear
10:16 AM 69.8 °F 35.6 °F 28% 30.23 in 10.0 mi Calm Calm - N/A   Clear
10:35 AM 69.8 °F 37.4 °F 31% 30.22 in 10.0 mi Calm Calm - N/A   Clear
10:56 AM 73.4 °F 35.6 °F 25% 30.22 in 10.0 mi Calm Calm - N/A   Clear
11:16 AM 77.0 °F 33.8 °F 21% 30.21 in 10.0 mi Calm Calm - N/A   Clear
11:36 AM 78.8 °F 33.8 °F 20% 30.21 in 10.0 mi ESE 3.5 mph - N/A   Clear
11:56 AM 80.6 °F 19.4 °F 10% 30.20 in 10.0 mi SE 4.6 mph - N/A   Clear
12:16 PM 82.4 °F 17.6 °F 9% 30.20 in 10.0 mi North 6.9 mph - N/A   Clear
12:36 PM 87.8 °F 14.0 °F 6% 30.19 in 10.0 mi NNW 5.8 mph - N/A   Clear
12:55 PM 84.2 °F 12.2 °F 7% 30.19 in 10.0 mi North 10.4 mph 17.3 mph N/A   Clear
1:16 PM 87.8 °F 12.2 °F 6% 30.17 in 10.0 mi North 20.7 mph 24.2 mph N/A   Clear
1:36 PM 87.8 °F 5.0 °F 4% 30.17 in 10.0 mi NW 16.1 mph 19.6 mph N/A   Clear
1:56 PM 89.6 °F 5.0 °F 4% 30.18 in 10.0 mi NW 12.7 mph 20.7 mph N/A   Clear
2:16 PM 89.6 °F 8.6 °F 5% 30.17 in 10.0 mi North 9.2 mph - N/A   Clear
2:35 PM 89.6 °F 5.0 °F 4% 30.17 in 10.0 mi NNW 16.1 mph 20.7 mph N/A   Clear
2:56 PM 89.6 °F 5.0 °F 4% 30.16 in 10.0 mi NNW 11.5 mph 19.6 mph N/A   Clear
3:16 PM 89.6 °F 8.6 °F 5% 30.16 in 10.0 mi NW 9.2 mph 23.0 mph N/A   Clear
3:36 PM 86.0 °F 10.4 °F 6% 30.16 in 10.0 mi NW 6.9 mph 20.7 mph N/A   Clear
3:56 PM 89.6 °F 10.4 °F 5% 30.16 in 10.0 mi North 12.7 mph 17.3 mph N/A   Clear
4:16 PM 89.6 °F 6.8 °F 4% 30.15 in 10.0 mi North 12.7 mph 23.0 mph N/A   Clear
4:36 PM 86.0 °F 5.0 °F 5% 30.15 in 10.0 mi North 11.5 mph 19.6 mph N/A   Clear
4:56 PM 87.8 °F 8.6 °F 5% 30.14 in 10.0 mi NW 6.9 mph 17.3 mph N/A   Clear
5:15 PM 89.6 °F 5.0 °F 4% 30.14 in 10.0 mi West 11.5 mph 17.3 mph N/A   Clear
5:36 PM 89.6 °F 8.6 °F 5% 30.14 in 10.0 mi NW 8.1 mph - N/A   Clear
5:56 PM 89.6 °F 5.0 °F 4% 30.14 in 10.0 mi North 5.8 mph - N/A   Clear
6:16 PM 87.8 °F 6.8 °F 5% 30.14 in 10.0 mi NW 4.6 mph - N/A   Clear
6:36 PM 89.6 °F 5.0 °F 4% 30.13 in 10.0 mi NW 9.2 mph - N/A   Clear
6:56 PM 87.8 °F 6.8 °F 5% 30.13 in 10.0 mi WNW 6.9 mph - N/A   Clear
7:16 PM 82.4 °F 8.6 °F 6% 30.14 in 10.0 mi NNW 5.8 mph - N/A   Clear
7:36 PM 80.6 °F 10.4 °F 7% 30.14 in 10.0 mi WNW 4.6 mph - N/A   Clear
7:56 PM 78.8 °F 12.2 °F 8% 30.14 in 10.0 mi WNW 3.5 mph - N/A   Clear
8:16 PM 73.4 °F 30.2 °F 20% 30.15 in 10.0 mi West 4.6 mph - N/A   Clear
8:35 PM 73.4 °F 28.4 °F 19% 30.16 in 10.0 mi Calm Calm - N/A   Clear
8:56 PM 71.6 °F 23.0 °F 16% 30.16 in 10.0 mi Calm Calm - N/A   Clear
9:16 PM 69.8 °F 23.0 °F 17% 30.16 in 10.0 mi Calm Calm - N/A   Clear
9:36 PM 68.0 °F 23.0 °F 18% 30.16 in 10.0 mi North 3.5 mph - N/A   Clear
9:56 PM 64.4 °F 21.2 °F 19% 30.17 in 10.0 mi Calm Calm - N/A   Clear
10:16 PM 60.8 °F 32.0 °F 34% 30.18 in 10.0 mi Calm Calm - N/A   Clear
10:36 PM 60.8 °F 32.0 °F 34% 30.19 in 10.0 mi North 3.5 mph - N/A   Clear
10:56 PM 59.0 °F 35.6 °F 42% 30.19 in 10.0 mi South 3.5 mph - N/A   Clear
11:16 PM 59.0 °F 35.6 °F 42% 30.20 in 10.0 mi SSW 4.6 mph - N/A   Clear
11:36 PM 59.0 °F 32.0 °F 36% 30.20 in 10.0 mi Calm Calm - N/A   Clear
11:56 PM 59.0 °F 32.0 °F 36% 30.20 in 10.0 mi Calm Calm - N/A   Clear